Home   Weather   Spokane   Past weeks
Flag for USA

Past Weather in Spokane, Washington, USA — Yesterday and Last 2 Weeks

Now
53 °F

Sunny.


Feels Like: 51 °F
Forecast: 67 / 49 °F
Wind: 6 mph from Southwest

Location: Felts Field

Current Time: Apr 23, 2019 at 7:36:41 am

Latest Report: Apr 23, 2019 at 5:53 am


Visibility: 10 mi

Pressure: 30.07 "Hg (28.09 "Hg at 569m altitude)

Humidity: 74%

Dew Point: 45 °F

Location of SpokaneLocation

Past Weather in Spokane — Graph

°F

Spokane Temperature Yesterday

Maximum temperature yesterday: 67 °F (at 3:53 pm)
Minimum temperature yesterday: 41 °F (at 4:53 am)
Average temperature yesterday: 55 °F

High & Low Weather Summary for the Past Weeks

 TemperatureHumidityPressure
High69 °F (Apr 18, 4:53 pm)100% (Apr 10, 3:18 am)30.27 "Hg (Apr 10, 3:18 am)
Low32 °F (Apr 16, 4:53 am)25% (Apr 22, 6:53 pm)29.73 "Hg (Apr 14, 1:25 am)
Average49 °F70%29.97 "Hg
* Reported Apr 8 5:53 am — Apr 23 5:53 am, Spokane. Weather by CustomWeather, © 2019

Note: Actual official high and low records may vary slightly from our data, if they occured in-between our weather recording intervals... More about our weather records

Advertising

Spokane Weather History for the Previous 24 Hours

Scroll right to see more
 ConditionsComfort  
Time TempWeatherWind HumidityBarometerVisibility
5:53 am
Tue, Apr 23
53 °FSunny.6 mph74%30.07 "Hg10 mi
4:53 am54 °FOvercast.5 mph72%30.07 "Hg10 mi
3:53 am55 °FOvercast.3 mph69%30.06 "Hg10 mi
2:53 am55 °FPassing clouds.7 mph69%30.05 "Hg10 mi
1:53 am57 °FPassing clouds.10 mph64%30.05 "Hg10 mi
12:53 am56 °FPassing clouds.5 mph65%30.06 "Hg10 mi
11:53 pm
Mon, Apr 22
55 °FMostly cloudy.No wind67%30.07 "Hg10 mi
10:53 pm52 °FMostly cloudy.5 mph80%30.09 "Hg10 mi
9:53 pm54 °FLight rain. Overcast.No wind72%30.11 "Hg10 mi
8:53 pm61 °FMostly cloudy.3 mph41%30.10 "Hg10 mi
7:53 pm62 °FMostly cloudy.10 mph30%30.10 "Hg10 mi
6:53 pm64 °FOvercast.12 mph25%30.11 "Hg10 mi
5:53 pm65 °FBroken clouds.10 mph27%30.12 "Hg10 mi
4:53 pm67 °FSunny.12 mph31%30.12 "Hg10 mi
3:53 pm67 °FSunny.9 mph31%30.14 "Hg10 mi
2:53 pm66 °FSunny.14 mph32%30.16 "Hg10 mi
1:53 pm66 °FSunny.14 mph34%30.19 "Hg10 mi
12:53 pm65 °FSunny.10 mph36%30.20 "Hg10 mi
11:53 am63 °FSunny.10 mph35%30.22 "Hg10 mi
10:53 am61 °FSunny.9 mph44%30.23 "Hg10 mi
9:53 am57 °FSunny.12 mph51%30.23 "Hg10 mi
8:53 am53 °FSunny.No wind59%30.26 "Hg10 mi
7:53 am48 °FSunny.3 mph66%30.26 "Hg10 mi
Weather by CustomWeather, © 2019

See weather overview